sat.trackr.live / text

‹ back to catalog

ONEWEB-0019

NORAD 45449 · 2020-020AB

PAYLOAD ACTIVE UNKNOWN

§ Identity

Operator
Country
UK
Launch date
2020-03-21
Launch site
TYMSC
Launch vehicle
Mass (kg)
RCS (m²)

Purposes: comms

External: N2YO · Heavens-Above · Gunter

§ Orbital elements

Epoch: 2026-09-09T01:30:29.173824Z

Period
109.80 min
Inclination
87.8960°
Eccentricity
0.0001671
Mean motion
13.11418831 rev/d
Perigee alt
1,216.4 km
Apogee alt
1,218.9 km
Semi-major
7,595.8 km
B*
-1.4606e-4
RAAN
4.3789°
Arg perigee
106.9777°
Mean anomaly
253.1534°
Rev number
31,353

§ Raw data

ONEWEB-00191 45449U 20020AB  26252.06283766 -.00000039  00000+0 -14606-3 0  99982 45449  87.8960   4.3789 0001671 106.9777 253.1534 13.11418831313538

JSON: /api/v1/satellites/45449 · /tle

For live sub-satellite position, see the globe view (requires WebGL).

§ Visibility from observer

Set your observer location to see the next 7 days of passes ≥ 10°. The values pass through the URL so the page stays shareable.

No JS? Fill the form by hand. The geolocation button needs JavaScript.